Year,Month,Day,Hour,Minute,Value (Times are PST for temperature in C)
2015,06,22,00,00,15.30
2015,06,22,00,01,15.30
2015,06,22,00,02,15.30
2015,06,22,00,03,15.30
2015,06,22,00,04,15.30
2015,06,22,00,05,15.30
2015,06,22,00,06,15.30
2015,06,22,00,07,15.30
2015,06,22,00,08,15.30
2015,06,22,00,09,15.20
2015,06,22,00,10,15.20
2015,06,22,00,11,15.20
2015,06,22,00,12,15.20
2015,06,22,00,13,15.20
2015,06,22,00,14,15.20
2015,06,22,00,15,15.20
2015,06,22,00,16,15.10
2015,06,22,00,17,15.10
2015,06,22,00,18,15.10
2015,06,22,00,19,15.10
2015,06,22,00,20,15.10
2015,06,22,00,21,15.10
2015,06,22,00,22,15.00
2015,06,22,00,23,15.00
2015,06,22,00,24,15.00
2015,06,22,00,25,14.90
2015,06,22,00,26,14.90
2015,06,22,00,27,14.90
2015,06,22,00,28,14.90
2015,06,22,00,29,14.90
2015,06,22,00,30,14.90
2015,06,22,00,31,14.90
2015,06,22,00,32,14.90
2015,06,22,00,33,14.90
2015,06,22,00,34,14.90
2015,06,22,00,35,14.90
2015,06,22,00,36,14.90
2015,06,22,00,37,14.90
2015,06,22,00,38,14.90
2015,06,22,00,39,14.90
2015,06,22,00,40,14.90
2015,06,22,00,41,14.90
2015,06,22,00,42,15.00
2015,06,22,00,43,15.00
2015,06,22,00,44,15.00
2015,06,22,00,45,15.00
2015,06,22,00,46,15.00
2015,06,22,00,47,15.10
2015,06,22,00,48,15.10
2015,06,22,00,49,15.10
2015,06,22,00,50,15.00
2015,06,22,00,51,15.00
2015,06,22,00,52,15.00
2015,06,22,00,53,15.10
2015,06,22,00,54,15.10
2015,06,22,00,55,15.10
2015,06,22,00,56,15.10
2015,06,22,00,57,15.10
2015,06,22,00,58,15.10
2015,06,22,00,59,15.10
2015,06,22,01,00,15.10
2015,06,22,01,01,15.00
2015,06,22,01,02,15.00
2015,06,22,01,03,15.00
2015,06,22,01,04,15.00
2015,06,22,01,05,15.00
2015,06,22,01,06,15.00
2015,06,22,01,07,15.00
2015,06,22,01,08,15.00
2015,06,22,01,09,15.00
2015,06,22,01,10,15.00
2015,06,22,01,11,15.00
2015,06,22,01,12,15.00
2015,06,22,01,13,15.00
2015,06,22,01,14,15.00
2015,06,22,01,15,15.00
2015,06,22,01,16,15.10
2015,06,22,01,17,15.10
2015,06,22,01,18,15.10
2015,06,22,01,19,15.10
2015,06,22,01,20,15.10
2015,06,22,01,21,15.10
2015,06,22,01,22,15.10
2015,06,22,01,23,15.10
2015,06,22,01,24,15.00
2015,06,22,01,25,15.10
2015,06,22,01,26,15.10
2015,06,22,01,27,15.10
2015,06,22,01,28,15.10
2015,06,22,01,29,15.10
2015,06,22,01,30,15.10
2015,06,22,01,31,15.00
2015,06,22,01,32,15.10
2015,06,22,01,33,15.10
2015,06,22,01,34,15.00
2015,06,22,01,35,15.00
2015,06,22,01,36,15.00
2015,06,22,01,37,15.00
2015,06,22,01,38,14.90
2015,06,22,01,39,14.90
2015,06,22,01,40,14.90
2015,06,22,01,41,14.90
2015,06,22,01,42,14.90
2015,06,22,01,43,14.90
2015,06,22,01,44,14.90
2015,06,22,01,45,14.80
2015,06,22,01,46,14.80
2015,06,22,01,47,14.80
2015,06,22,01,48,14.80
2015,06,22,01,49,14.80
2015,06,22,01,50,14.80
2015,06,22,01,51,14.80
2015,06,22,01,52,14.80
2015,06,22,01,53,14.80
2015,06,22,01,54,14.80
2015,06,22,01,55,14.70
2015,06,22,01,56,14.70
2015,06,22,01,57,14.70
2015,06,22,01,58,14.70
2015,06,22,01,59,14.70
2015,06,22,02,00,14.70
2015,06,22,02,01,14.70
2015,06,22,02,02,14.70
2015,06,22,02,03,14.70
2015,06,22,02,04,14.70
2015,06,22,02,05,14.60
2015,06,22,02,06,14.60
2015,06,22,02,07,14.60
2015,06,22,02,08,14.60
2015,06,22,02,09,14.60
2015,06,22,02,10,14.60
2015,06,22,02,11,14.60
2015,06,22,02,12,14.60
2015,06,22,02,13,14.60
2015,06,22,02,14,14.60
2015,06,22,02,15,14.60
2015,06,22,02,16,14.60
2015,06,22,02,17,14.60
2015,06,22,02,18,14.60
2015,06,22,02,19,14.60
2015,06,22,02,20,14.60
2015,06,22,02,21,14.60
2015,06,22,02,22,14.60
2015,06,22,02,23,14.60
2015,06,22,02,24,14.60
2015,06,22,02,25,14.60
2015,06,22,02,26,14.60
2015,06,22,02,27,14.60
2015,06,22,02,28,14.60
2015,06,22,02,29,14.60
2015,06,22,02,30,14.60
2015,06,22,02,31,14.60
2015,06,22,02,32,14.60
2015,06,22,02,33,14.50
2015,06,22,02,34,14.50
2015,06,22,02,35,14.50
2015,06,22,02,36,14.50
2015,06,22,02,37,14.40
2015,06,22,02,38,14.40
2015,06,22,02,39,14.40
2015,06,22,02,40,14.40
2015,06,22,02,41,14.40
2015,06,22,02,42,14.40
2015,06,22,02,43,14.40
2015,06,22,02,44,14.40
2015,06,22,02,45,14.40
2015,06,22,02,46,14.40
2015,06,22,02,47,14.40
2015,06,22,02,48,14.30
2015,06,22,02,49,14.30
2015,06,22,02,50,14.30
2015,06,22,02,51,14.30
2015,06,22,02,52,14.30
2015,06,22,02,53,14.20
2015,06,22,02,54,14.20
2015,06,22,02,55,14.20
2015,06,22,02,56,14.10
2015,06,22,02,57,14.10
2015,06,22,02,58,14.10
2015,06,22,02,59,14.10
2015,06,22,03,00,14.00
2015,06,22,03,01,14.00
2015,06,22,03,02,14.00
2015,06,22,03,03,13.90
2015,06,22,03,04,13.90
2015,06,22,03,05,13.90
2015,06,22,03,06,13.80
2015,06,22,03,07,13.80
2015,06,22,03,08,13.80
2015,06,22,03,09,13.80
2015,06,22,03,10,13.70
2015,06,22,03,11,13.70
2015,06,22,03,12,13.70
2015,06,22,03,13,13.70
2015,06,22,03,14,13.70
2015,06,22,03,15,13.70
2015,06,22,03,16,13.80
2015,06,22,03,17,13.70
2015,06,22,03,18,13.70
2015,06,22,03,19,13.70
2015,06,22,03,20,13.70
2015,06,22,03,21,13.70
2015,06,22,03,22,13.60
2015,06,22,03,23,13.60
2015,06,22,03,24,13.60
2015,06,22,03,25,13.60
2015,06,22,03,26,13.60
2015,06,22,03,27,13.60
2015,06,22,03,28,13.60
2015,06,22,03,29,13.60
2015,06,22,03,30,13.60
2015,06,22,03,31,13.60
2015,06,22,03,32,13.60
2015,06,22,03,33,13.60
2015,06,22,03,34,13.60
2015,06,22,03,35,13.60
2015,06,22,03,36,13.60
2015,06,22,03,37,13.60
2015,06,22,03,38,13.60
2015,06,22,03,39,13.60
2015,06,22,03,40,13.60
2015,06,22,03,41,13.60
2015,06,22,03,42,13.60
2015,06,22,03,43,13.60
2015,06,22,03,44,13.60
2015,06,22,03,45,13.60
2015,06,22,03,46,13.60
2015,06,22,03,47,13.60
2015,06,22,03,48,13.50
2015,06,22,03,49,13.50
2015,06,22,03,50,13.50
2015,06,22,03,51,13.40
2015,06,22,03,52,13.40
2015,06,22,03,53,13.40
2015,06,22,03,54,13.40
2015,06,22,03,55,13.30
2015,06,22,03,56,13.30
2015,06,22,03,57,13.30
2015,06,22,03,58,13.30
2015,06,22,03,59,13.20
2015,06,22,04,00,13.20
2015,06,22,04,01,13.20
2015,06,22,04,02,13.20
2015,06,22,04,03,13.20
2015,06,22,04,04,13.20
2015,06,22,04,05,13.10
2015,06,22,04,06,13.10
2015,06,22,04,07,13.10
2015,06,22,04,08,13.10
2015,06,22,04,09,13.00
2015,06,22,04,10,13.00
2015,06,22,04,11,12.90
2015,06,22,04,12,12.90
2015,06,22,04,13,12.90
2015,06,22,04,14,12.90
2015,06,22,04,15,12.90
2015,06,22,04,16,12.90
2015,06,22,04,17,12.90
2015,06,22,04,18,12.90
2015,06,22,04,19,12.80
2015,06,22,04,20,12.80
2015,06,22,04,21,12.80
2015,06,22,04,22,12.80
2015,06,22,04,23,12.80
2015,06,22,04,24,12.80
2015,06,22,04,25,12.80
2015,06,22,04,26,12.70
2015,06,22,04,27,12.70
2015,06,22,04,28,12.70
2015,06,22,04,29,12.70
2015,06,22,04,30,12.60
2015,06,22,04,31,12.60
2015,06,22,04,32,12.60
2015,06,22,04,33,12.60
2015,06,22,04,34,12.50
2015,06,22,04,35,12.50
2015,06,22,04,36,12.40
2015,06,22,04,37,12.40
2015,06,22,04,38,12.40
2015,06,22,04,39,12.30
2015,06,22,04,40,12.30
2015,06,22,04,41,12.30
2015,06,22,04,42,12.30
2015,06,22,04,43,12.30
2015,06,22,04,44,12.20
2015,06,22,04,45,12.20
2015,06,22,04,46,12.20
2015,06,22,04,47,12.10
2015,06,22,04,48,12.10
2015,06,22,04,49,12.10
2015,06,22,04,50,12.10
2015,06,22,04,51,12.00
2015,06,22,04,52,12.00
2015,06,22,04,53,11.90
2015,06,22,04,54,11.90
2015,06,22,04,55,11.90
2015,06,22,04,56,11.80
2015,06,22,04,57,11.80
2015,06,22,04,58,11.80
2015,06,22,04,59,11.80
2015,06,22,05,00,11.70
2015,06,22,05,01,11.70
2015,06,22,05,02,11.70
2015,06,22,05,03,11.70
2015,06,22,05,04,11.70
2015,06,22,05,05,11.70
2015,06,22,05,06,11.60
2015,06,22,05,07,11.60
2015,06,22,05,08,11.60
2015,06,22,05,09,11.60
2015,06,22,05,10,11.60
2015,06,22,05,11,11.60
2015,06,22,05,12,11.60
2015,06,22,05,13,11.70
2015,06,22,05,14,11.70
2015,06,22,05,15,11.70
2015,06,22,05,16,11.70
2015,06,22,05,17,11.70
2015,06,22,05,18,11.60
2015,06,22,05,19,11.60
2015,06,22,05,20,11.60
2015,06,22,05,21,11.60
2015,06,22,05,22,11.60
2015,06,22,05,23,11.60
2015,06,22,05,24,11.60
2015,06,22,05,25,11.60
2015,06,22,05,26,11.70
2015,06,22,05,27,11.70
2015,06,22,05,28,11.70
2015,06,22,05,29,11.70
2015,06,22,05,30,11.70
2015,06,22,05,31,11.70
2015,06,22,05,32,11.70
2015,06,22,05,33,11.70
2015,06,22,05,34,11.60
2015,06,22,05,35,11.60
2015,06,22,05,36,11.60
2015,06,22,05,37,11.60
2015,06,22,05,38,11.60
2015,06,22,05,39,11.60
2015,06,22,05,40,11.60
2015,06,22,05,41,11.70
2015,06,22,05,42,11.70
2015,06,22,05,43,11.70
2015,06,22,05,44,11.70
2015,06,22,05,45,11.80
2015,06,22,05,46,11.80
2015,06,22,05,47,11.80
2015,06,22,05,48,11.80
2015,06,22,05,49,11.80
2015,06,22,05,50,11.90
2015,06,22,05,51,11.90
2015,06,22,05,52,11.90
2015,06,22,05,53,11.90
2015,06,22,05,54,11.90
2015,06,22,05,55,11.90
2015,06,22,05,56,12.00
2015,06,22,05,57,11.90
2015,06,22,05,58,11.90
2015,06,22,05,59,11.90
2015,06,22,06,00,11.90
2015,06,22,06,01,11.90
2015,06,22,06,02,11.90
2015,06,22,06,03,11.90
2015,06,22,06,04,11.90
2015,06,22,06,05,11.90
2015,06,22,06,06,11.90
2015,06,22,06,07,11.90
2015,06,22,06,08,11.90
2015,06,22,06,09,11.90
2015,06,22,06,10,11.90
2015,06,22,06,11,11.90
2015,06,22,06,12,11.90
2015,06,22,06,13,11.90
2015,06,22,06,14,12.00
2015,06,22,06,15,12.00
2015,06,22,06,16,12.00
2015,06,22,06,17,12.10
2015,06,22,06,18,12.10
2015,06,22,06,19,12.10
2015,06,22,06,20,12.10
2015,06,22,06,21,12.10
2015,06,22,06,22,12.20
2015,06,22,06,23,12.20
2015,06,22,06,24,12.20
2015,06,22,06,25,12.20
2015,06,22,06,26,12.20
2015,06,22,06,27,12.20
2015,06,22,06,28,12.20
2015,06,22,06,29,12.20
2015,06,22,06,30,12.20
2015,06,22,06,31,12.20
2015,06,22,06,32,12.30
2015,06,22,06,33,12.30
2015,06,22,06,34,12.30
2015,06,22,06,35,12.30
2015,06,22,06,36,12.30
2015,06,22,06,37,12.30
2015,06,22,06,38,12.30
2015,06,22,06,39,12.30
2015,06,22,06,40,12.30
2015,06,22,06,41,12.30
2015,06,22,06,42,12.40
2015,06,22,06,43,12.40
2015,06,22,06,44,12.40
2015,06,22,06,45,12.40
2015,06,22,06,46,12.50
2015,06,22,06,47,12.50
2015,06,22,06,48,12.50
2015,06,22,06,49,12.60
2015,06,22,06,50,12.60
2015,06,22,06,51,12.60
2015,06,22,06,52,12.60
2015,06,22,06,53,12.70
2015,06,22,06,54,12.70
2015,06,22,06,55,12.70
2015,06,22,06,56,12.80
2015,06,22,06,57,12.80
2015,06,22,06,58,12.90
2015,06,22,06,59,12.90
2015,06,22,07,00,12.90
2015,06,22,07,01,13.00
2015,06,22,07,02,13.00
2015,06,22,07,03,13.10
2015,06,22,07,04,13.10
2015,06,22,07,05,13.10
2015,06,22,07,06,13.10
2015,06,22,07,07,13.20
2015,06,22,07,08,13.20
2015,06,22,07,09,13.20
2015,06,22,07,10,13.20
2015,06,22,07,11,13.30
2015,06,22,07,12,13.30
2015,06,22,07,13,13.30
2015,06,22,07,14,13.30
2015,06,22,07,15,13.40
2015,06,22,07,16,13.40
2015,06,22,07,17,13.40
2015,06,22,07,18,13.50
2015,06,22,07,19,13.50
2015,06,22,07,20,13.60
2015,06,22,07,21,13.60
2015,06,22,07,22,13.60
2015,06,22,07,23,13.70
2015,06,22,07,24,13.70
2015,06,22,07,25,13.80
2015,06,22,07,26,13.80
2015,06,22,07,27,13.90
2015,06,22,07,28,13.90
2015,06,22,07,29,13.90
2015,06,22,07,30,14.00
2015,06,22,07,31,14.00
2015,06,22,07,32,14.10
2015,06,22,07,33,14.10
2015,06,22,07,34,14.10
2015,06,22,07,35,14.20
2015,06,22,07,36,14.20
2015,06,22,07,37,14.30
2015,06,22,07,38,14.30
2015,06,22,07,39,14.30
2015,06,22,07,40,14.40
2015,06,22,07,41,14.40
2015,06,22,07,42,14.50
2015,06,22,07,43,14.50
2015,06,22,07,44,14.50
2015,06,22,07,45,14.60
2015,06,22,07,46,14.60
2015,06,22,07,47,14.60
2015,06,22,07,48,14.60
2015,06,22,07,49,14.70
2015,06,22,07,50,14.70
2015,06,22,07,51,14.70
2015,06,22,07,52,14.70
2015,06,22,07,53,14.70
2015,06,22,07,54,14.80
2015,06,22,07,55,14.80
2015,06,22,07,56,14.80
2015,06,22,07,57,14.90
2015,06,22,07,58,14.90
2015,06,22,07,59,14.90
2015,06,22,08,00,14.90
2015,06,22,08,01,15.00
2015,06,22,08,02,15.00
2015,06,22,08,03,15.10
2015,06,22,08,04,15.10
2015,06,22,08,05,15.10
2015,06,22,08,06,15.20
2015,06,22,08,07,15.20
2015,06,22,08,08,15.20
2015,06,22,08,09,15.20
2015,06,22,08,10,15.30
2015,06,22,08,11,15.30
2015,06,22,08,12,15.30
2015,06,22,08,13,15.30
2015,06,22,08,14,15.40
2015,06,22,08,15,15.30
2015,06,22,08,16,15.40
2015,06,22,08,17,15.40
2015,06,22,08,18,15.30
2015,06,22,08,19,15.30
2015,06,22,08,20,15.30
2015,06,22,08,21,15.30
2015,06,22,08,22,15.30
2015,06,22,08,23,15.30
2015,06,22,08,24,15.30
2015,06,22,08,25,15.30
2015,06,22,08,26,15.30
2015,06,22,08,27,15.30
2015,06,22,08,28,15.30
2015,06,22,08,29,15.30
2015,06,22,08,30,15.30
2015,06,22,08,31,15.40
2015,06,22,08,32,15.50
2015,06,22,08,33,15.50
2015,06,22,08,34,15.60
2015,06,22,08,35,15.60
2015,06,22,08,36,15.60
2015,06,22,08,37,15.60
2015,06,22,08,38,15.60
2015,06,22,08,39,15.60
2015,06,22,08,40,15.60
2015,06,22,08,41,15.70
2015,06,22,08,42,15.70
2015,06,22,08,43,15.70
2015,06,22,08,44,15.70
2015,06,22,08,45,15.80
2015,06,22,08,46,15.80
2015,06,22,08,47,15.80
2015,06,22,08,48,15.90
2015,06,22,08,49,15.90
2015,06,22,08,50,15.90
2015,06,22,08,51,15.90
2015,06,22,08,52,15.90
2015,06,22,08,53,15.90
2015,06,22,08,54,15.90
2015,06,22,08,55,16.00
2015,06,22,08,56,16.00
2015,06,22,08,57,16.10
2015,06,22,08,58,16.10
2015,06,22,08,59,16.20
2015,06,22,09,00,16.20
2015,06,22,09,01,16.30
2015,06,22,09,02,16.30
2015,06,22,09,03,16.40
2015,06,22,09,04,16.50
2015,06,22,09,05,16.60
2015,06,22,09,06,16.60
2015,06,22,09,07,16.70
2015,06,22,09,08,16.70
2015,06,22,09,09,16.70
2015,06,22,09,10,16.70
2015,06,22,09,11,16.70
2015,06,22,09,12,16.70
2015,06,22,09,13,16.70
2015,06,22,09,14,16.70
2015,06,22,09,15,16.60
2015,06,22,09,16,16.60
2015,06,22,09,17,16.60
2015,06,22,09,18,16.60
2015,06,22,09,19,16.60
2015,06,22,09,20,16.60
2015,06,22,09,21,16.60
2015,06,22,09,22,16.70
2015,06,22,09,23,16.70
2015,06,22,09,24,16.70
2015,06,22,09,25,16.70
2015,06,22,09,26,16.70
2015,06,22,09,27,16.70
2015,06,22,09,28,16.70
2015,06,22,09,29,16.70
2015,06,22,09,30,16.70
2015,06,22,09,31,16.80
2015,06,22,09,32,16.80
2015,06,22,09,33,16.80
2015,06,22,09,34,16.80
2015,06,22,09,35,16.90
2015,06,22,09,36,17.00
2015,06,22,09,37,17.10
2015,06,22,09,38,17.10
2015,06,22,09,39,17.20
2015,06,22,09,40,17.20
2015,06,22,09,41,17.30
2015,06,22,09,42,17.30
2015,06,22,09,43,17.30
2015,06,22,09,44,17.30
2015,06,22,09,45,17.30
2015,06,22,09,46,17.30
2015,06,22,09,47,17.30
2015,06,22,09,48,17.30
2015,06,22,09,49,17.20
2015,06,22,09,50,17.20
2015,06,22,09,51,17.30
2015,06,22,09,52,17.30
2015,06,22,09,53,17.30
2015,06,22,09,54,17.30
2015,06,22,09,55,17.30
2015,06,22,09,56,17.40
2015,06,22,09,57,17.40
2015,06,22,09,58,17.40
2015,06,22,09,59,17.40
2015,06,22,10,00,17.50
2015,06,22,10,01,17.50
2015,06,22,10,02,17.50
2015,06,22,10,03,17.50
2015,06,22,10,04,17.40
2015,06,22,10,05,17.40
2015,06,22,10,06,17.40
2015,06,22,10,07,17.40
2015,06,22,10,08,17.50
2015,06,22,10,09,17.50
2015,06,22,10,10,17.60
2015,06,22,10,11,17.60
2015,06,22,10,12,17.60
2015,06,22,10,13,17.70
2015,06,22,10,14,17.70
2015,06,22,10,15,17.70
2015,06,22,10,16,17.70
2015,06,22,10,17,17.70
2015,06,22,10,18,17.70
2015,06,22,10,19,17.70
2015,06,22,10,20,17.60
2015,06,22,10,21,17.60
2015,06,22,10,22,17.60
2015,06,22,10,23,17.60
2015,06,22,10,24,17.60
2015,06,22,10,25,17.60
2015,06,22,10,26,17.60
2015,06,22,10,27,17.70
2015,06,22,10,28,17.70
2015,06,22,10,29,17.70
2015,06,22,10,30,17.70
2015,06,22,10,31,17.60
2015,06,22,10,32,17.60
2015,06,22,10,33,17.60
2015,06,22,10,34,17.50
2015,06,22,10,35,17.50
2015,06,22,10,36,17.50
2015,06,22,10,37,17.60
2015,06,22,10,38,17.60
2015,06,22,10,39,17.60
2015,06,22,10,40,17.60
2015,06,22,10,41,17.70
2015,06,22,10,42,17.70
2015,06,22,10,43,17.70
2015,06,22,10,44,17.70
2015,06,22,10,45,17.70
2015,06,22,10,46,17.70
2015,06,22,10,47,17.70
2015,06,22,10,48,17.70
2015,06,22,10,49,17.80
2015,06,22,10,50,17.80
2015,06,22,10,51,17.80
2015,06,22,10,52,17.80
2015,06,22,10,53,17.80
2015,06,22,10,54,17.80
2015,06,22,10,55,17.90
2015,06,22,10,56,18.00
2015,06,22,10,57,18.00
2015,06,22,10,58,18.10
2015,06,22,10,59,18.10
2015,06,22,11,00,18.20
2015,06,22,11,01,18.20
2015,06,22,11,02,18.30
2015,06,22,11,03,18.20
2015,06,22,11,04,18.20
2015,06,22,11,05,18.20
2015,06,22,11,06,18.10
2015,06,22,11,07,18.10
2015,06,22,11,08,18.10
2015,06,22,11,09,18.00
2015,06,22,11,10,18.00
2015,06,22,11,11,18.00
2015,06,22,11,12,17.90
2015,06,22,11,13,17.90
2015,06,22,11,14,17.80
2015,06,22,11,15,17.70
2015,06,22,11,16,17.70
2015,06,22,11,17,17.60
2015,06,22,11,18,17.60
2015,06,22,11,19,17.50
2015,06,22,11,20,17.40
2015,06,22,11,21,17.40
2015,06,22,11,22,17.30
2015,06,22,11,23,17.20
2015,06,22,11,24,17.20
2015,06,22,11,25,17.20
2015,06,22,11,26,17.20
2015,06,22,11,27,17.20
2015,06,22,11,28,17.20
2015,06,22,11,29,17.20
2015,06,22,11,30,17.30
2015,06,22,11,31,17.30
2015,06,22,11,32,17.30
2015,06,22,11,33,17.30
2015,06,22,11,34,17.30
2015,06,22,11,35,17.30
2015,06,22,11,36,17.30
2015,06,22,11,37,17.20
2015,06,22,11,38,17.20
2015,06,22,11,39,17.20
2015,06,22,11,40,17.20
2015,06,22,11,41,17.20
2015,06,22,11,42,17.20
2015,06,22,11,43,17.20
2015,06,22,11,44,17.20
2015,06,22,11,45,17.30
2015,06,22,11,46,17.30
2015,06,22,11,47,17.30
2015,06,22,11,48,17.30
2015,06,22,11,49,17.30
2015,06,22,11,50,17.30
2015,06,22,11,51,17.20
2015,06,22,11,52,17.20
2015,06,22,11,53,17.20
2015,06,22,11,54,17.20
2015,06,22,11,55,17.30
2015,06,22,11,56,17.30
2015,06,22,11,57,17.30
2015,06,22,11,58,17.30
2015,06,22,11,59,17.40
2015,06,22,12,00,17.40
2015,06,22,12,01,17.40
2015,06,22,12,02,17.40
2015,06,22,12,03,17.40
2015,06,22,12,04,17.40
2015,06,22,12,05,17.40
2015,06,22,12,06,17.30
2015,06,22,12,07,17.40
2015,06,22,12,08,17.40
2015,06,22,12,09,17.40
2015,06,22,12,10,17.40
2015,06,22,12,11,17.50
2015,06,22,12,12,17.50
2015,06,22,12,13,17.50
2015,06,22,12,14,17.40
2015,06,22,12,15,17.50
2015,06,22,12,16,17.50
2015,06,22,12,17,17.60
2015,06,22,12,18,17.60
2015,06,22,12,19,17.60
2015,06,22,12,20,17.70
2015,06,22,12,21,17.70
2015,06,22,12,22,17.70
2015,06,22,12,23,17.70
2015,06,22,12,24,17.70
2015,06,22,12,25,17.70
2015,06,22,12,26,17.80
2015,06,22,12,27,17.90
2015,06,22,12,28,18.00
2015,06,22,12,29,18.00
2015,06,22,12,30,18.10
2015,06,22,12,31,18.00
2015,06,22,12,32,18.00
2015,06,22,12,33,17.90
2015,06,22,12,34,17.90
2015,06,22,12,35,17.80
2015,06,22,12,36,17.80
2015,06,22,12,37,17.80
2015,06,22,12,38,17.80
2015,06,22,12,39,17.80
2015,06,22,12,40,17.80
2015,06,22,12,41,17.80
2015,06,22,12,42,17.90
2015,06,22,12,43,17.90
2015,06,22,12,44,18.00
2015,06,22,12,45,18.00
2015,06,22,12,46,18.10
2015,06,22,12,47,18.10
2015,06,22,12,48,18.20
2015,06,22,12,49,18.30
2015,06,22,12,50,18.40
2015,06,22,12,51,18.50
2015,06,22,12,52,18.50
2015,06,22,12,53,18.60
2015,06,22,12,54,18.60
2015,06,22,12,55,18.60
2015,06,22,12,56,18.60
2015,06,22,12,57,18.60
2015,06,22,12,58,18.50
2015,06,22,12,59,18.50
2015,06,22,13,00,18.50
2015,06,22,13,01,18.50
2015,06,22,13,02,18.50
2015,06,22,13,03,18.50
2015,06,22,13,04,18.50
2015,06,22,13,05,18.50
2015,06,22,13,06,18.60
2015,06,22,13,07,18.60
2015,06,22,13,08,18.60
2015,06,22,13,09,18.60
2015,06,22,13,10,18.60
2015,06,22,13,11,18.50
2015,06,22,13,12,18.60
2015,06,22,13,13,18.50
2015,06,22,13,14,18.50
2015,06,22,13,15,18.50
2015,06,22,13,16,18.50
2015,06,22,13,17,18.50
2015,06,22,13,18,18.40
2015,06,22,13,19,18.40
2015,06,22,13,20,18.40
2015,06,22,13,21,18.40
2015,06,22,13,22,18.40
2015,06,22,13,23,18.50
2015,06,22,13,24,18.50
2015,06,22,13,25,18.50
2015,06,22,13,26,18.60
2015,06,22,13,27,18.60
2015,06,22,13,28,18.60
2015,06,22,13,29,18.60
2015,06,22,13,30,18.60
2015,06,22,13,31,18.60
2015,06,22,13,32,18.60
2015,06,22,13,33,18.60
2015,06,22,13,34,18.60
2015,06,22,13,35,18.60
2015,06,22,13,36,18.70
2015,06,22,13,37,18.70
2015,06,22,13,38,18.80
2015,06,22,13,39,18.80
2015,06,22,13,40,18.90
2015,06,22,13,41,18.90
2015,06,22,13,42,18.80
2015,06,22,13,43,18.80
2015,06,22,13,44,18.80
2015,06,22,13,45,18.80
2015,06,22,13,46,18.80
2015,06,22,13,47,18.80
2015,06,22,13,48,18.80
2015,06,22,13,49,18.80
2015,06,22,13,50,18.80
2015,06,22,13,51,18.80
2015,06,22,13,52,18.90
2015,06,22,13,53,18.90
2015,06,22,13,54,19.00
2015,06,22,13,55,19.00
2015,06,22,13,56,19.00
2015,06,22,13,57,19.10
2015,06,22,13,58,19.10
2015,06,22,13,59,19.10
2015,06,22,14,00,19.10
2015,06,22,14,01,19.00
2015,06,22,14,02,19.00
2015,06,22,14,03,19.00
2015,06,22,14,04,19.10
2015,06,22,14,05,19.10
2015,06,22,14,06,19.20
2015,06,22,14,07,19.20
2015,06,22,14,08,19.30
2015,06,22,14,09,19.30
2015,06,22,14,10,19.30
2015,06,22,14,11,19.40
2015,06,22,14,12,19.40
2015,06,22,14,13,19.40
2015,06,22,14,14,19.50
2015,06,22,14,15,19.50
2015,06,22,14,16,19.50
2015,06,22,14,17,19.60
2015,06,22,14,18,19.60
2015,06,22,14,19,19.70
2015,06,22,14,20,19.70
2015,06,22,14,21,19.70
2015,06,22,14,22,19.70
2015,06,22,14,23,19.80
2015,06,22,14,24,19.80
2015,06,22,14,25,19.90
2015,06,22,14,26,19.90
2015,06,22,14,27,20.10
2015,06,22,14,28,20.20
2015,06,22,14,29,20.30
2015,06,22,14,30,20.30
2015,06,22,14,31,20.40
2015,06,22,14,32,20.40
2015,06,22,14,33,20.40
2015,06,22,14,34,20.40
2015,06,22,14,35,20.40
2015,06,22,14,36,20.40
2015,06,22,14,37,20.40
2015,06,22,14,38,20.30
2015,06,22,14,39,20.20
2015,06,22,14,40,20.20
2015,06,22,14,41,20.30
2015,06,22,14,42,20.30
2015,06,22,14,43,20.30
2015,06,22,14,44,20.30
2015,06,22,14,45,20.40
2015,06,22,14,46,20.40
2015,06,22,14,47,20.40
2015,06,22,14,48,20.50
2015,06,22,14,49,20.60
2015,06,22,14,50,20.70
2015,06,22,14,51,20.80
2015,06,22,14,52,20.80
2015,06,22,14,53,20.80
2015,06,22,14,54,20.80
2015,06,22,14,55,20.80
2015,06,22,14,56,20.80
2015,06,22,14,57,20.80
2015,06,22,14,58,20.80
2015,06,22,14,59,20.80
2015,06,22,15,00,20.80
2015,06,22,15,01,20.80
2015,06,22,15,02,20.90
2015,06,22,15,03,21.00
2015,06,22,15,04,21.10
2015,06,22,15,05,21.10
2015,06,22,15,06,21.10
2015,06,22,15,07,21.10
2015,06,22,15,08,21.00
2015,06,22,15,09,20.90
2015,06,22,15,10,20.90
2015,06,22,15,11,20.80
2015,06,22,15,12,20.80
2015,06,22,15,13,20.80
2015,06,22,15,14,20.90
2015,06,22,15,15,20.90
2015,06,22,15,16,20.80
2015,06,22,15,17,20.70
2015,06,22,15,18,20.70
2015,06,22,15,19,20.60
2015,06,22,15,20,20.60
2015,06,22,15,21,20.50
2015,06,22,15,22,20.50
2015,06,22,15,23,20.40
2015,06,22,15,24,20.40
2015,06,22,15,25,20.40
2015,06,22,15,26,20.40
2015,06,22,15,27,20.30
2015,06,22,15,28,20.30
2015,06,22,15,29,20.30
2015,06,22,15,30,20.40
2015,06,22,15,31,20.50
2015,06,22,15,32,20.60
2015,06,22,15,33,20.70
2015,06,22,15,34,20.70
2015,06,22,15,35,20.80
2015,06,22,15,36,20.80
2015,06,22,15,37,20.90
2015,06,22,15,38,20.90
2015,06,22,15,39,20.90
2015,06,22,15,40,20.90
2015,06,22,15,41,21.00
2015,06,22,15,42,21.00
2015,06,22,15,43,21.10
2015,06,22,15,44,21.10
2015,06,22,15,45,21.10
2015,06,22,15,46,21.20
2015,06,22,15,47,21.30
2015,06,22,15,48,21.40
2015,06,22,15,49,21.60
2015,06,22,15,50,21.70
2015,06,22,15,51,21.90
2015,06,22,15,52,21.90
2015,06,22,15,53,21.90
2015,06,22,15,54,21.80
2015,06,22,15,55,21.70
2015,06,22,15,56,21.60
2015,06,22,15,57,21.60
2015,06,22,15,58,21.60
2015,06,22,15,59,21.50
2015,06,22,16,00,21.40
2015,06,22,16,01,21.20
2015,06,22,16,02,21.20
2015,06,22,16,03,21.10
2015,06,22,16,04,21.00
2015,06,22,16,05,20.90
2015,06,22,16,06,20.80
2015,06,22,16,07,20.80
2015,06,22,16,08,20.80
2015,06,22,16,09,20.80
2015,06,22,16,10,20.80
2015,06,22,16,11,20.80
2015,06,22,16,12,20.80
2015,06,22,16,13,20.80
2015,06,22,16,14,20.90
2015,06,22,16,15,20.90
2015,06,22,16,16,20.90
2015,06,22,16,17,20.90
2015,06,22,16,18,20.90
2015,06,22,16,19,20.90
2015,06,22,16,20,20.90
2015,06,22,16,21,20.90
2015,06,22,16,22,20.90
2015,06,22,16,23,21.00
2015,06,22,16,24,21.00
2015,06,22,16,25,21.10
2015,06,22,16,26,21.10
2015,06,22,16,27,21.10
2015,06,22,16,28,21.10
2015,06,22,16,29,21.10
2015,06,22,16,30,21.10
2015,06,22,16,31,21.20
2015,06,22,16,32,21.30
2015,06,22,16,33,21.30
2015,06,22,16,34,21.40
2015,06,22,16,35,21.40
2015,06,22,16,36,21.50
2015,06,22,16,37,21.50
2015,06,22,16,38,21.40
2015,06,22,16,39,21.40
2015,06,22,16,40,21.30
2015,06,22,16,41,21.20
2015,06,22,16,42,21.10
2015,06,22,16,43,21.00
2015,06,22,16,44,21.00
2015,06,22,16,45,20.90
2015,06,22,16,46,21.00
2015,06,22,16,47,21.00
2015,06,22,16,48,21.10
2015,06,22,16,49,21.10
2015,06,22,16,50,21.10
2015,06,22,16,51,21.10
2015,06,22,16,52,21.10
2015,06,22,16,53,21.10
2015,06,22,16,54,21.20
2015,06,22,16,55,21.20
2015,06,22,16,56,21.20
2015,06,22,16,57,21.20
2015,06,22,16,58,21.20
2015,06,22,16,59,21.20
2015,06,22,17,00,21.20
2015,06,22,17,01,21.20
2015,06,22,17,02,21.20
2015,06,22,17,03,21.20
2015,06,22,17,04,21.30
2015,06,22,17,05,21.30
2015,06,22,17,06,21.30
2015,06,22,17,07,21.40
2015,06,22,17,08,21.40
2015,06,22,17,09,21.40
2015,06,22,17,10,21.40
2015,06,22,17,11,21.40
2015,06,22,17,12,21.30
2015,06,22,17,13,21.30
2015,06,22,17,14,21.20
2015,06,22,17,15,21.20
2015,06,22,17,16,21.20
2015,06,22,17,17,21.30
2015,06,22,17,18,21.30
2015,06,22,17,19,21.30